Wind_Speed
21 21 21 21 21 21 21 21 21 19 20 20 20 20 21 21 22 21 22 22 22 22 23 23 22 23 23 23 23 24 24 25 25 25 25 26 26 26 27 26 25 25 25 25
23 23 23 24 23 23 22 23 23 23 23 22 23 23 23 23 23 22 22 23 24 23 24 24 24 24 24 25 25 26 27 27 27 27 27 27 26 26 26 26 26 26 26 26
25 25 25 25 24 25 25 25 26 26 26 25 25 24 24 25 25 25 24 24 25 26 26 26 26 26 27 28 27 27 28 28 28 28 28 28 27 26 26 26 27 26 27 26
26 25 26 24 24 25 26 28 28 28 28 28 27 26 26 26 26 27 27 26 26 27 28 27 27 28 29 29 28 28 28 29 29 29 29 28 27 27 28 28 27 27 27 26
26 26 25 24 23 24 26 27 27 28 28 28 27 28 27 27 27 28 28 27 27 28 28 28 28 29 29 28 28 28 28 29 29 29 28 28 27 28 28 28 27 27 27 27
26 27 26 24 23 24 25 27 27 28 29 28 28 28 28 28 29 29 29 30 29 29 29 29 28 28 28 28 28 29 29 29 29 29 28 28 27 27 28 28 28 28 27 28
26 26 27 25 24 24 26 27 27 27 28 28 28 28 28 28 29 30 30 30 30 29 29 30 29 28 28 28 29 29 29 29 29 29 28 27 27 28 28 29 28 28 29 29
26 26 27 25 24 24 25 26 26 27 27 28 28 27 27 28 29 30 30 30 29 29 29 29 28 27 28 28 29 29 29 29 29 28 28 28 28 28 28 29 29 29 29 29
27 28 27 27 26 26 26 27 28 28 28 27 27 26 26 27 28 28 29 29 29 29 28 28 28 28 29 29 29 30 30 30 29 28 28 28 28 28 28 28 29 30 30 29
29 28 28 28 28 28 27 27 27 27 28 28 28 28 28 28 29 29 28 28 28 28 28 27 28 28 29 30 30 31 31 30 29 28 28 28 29 29 30 30 30 29 29 29
29 28 28 28 28 28 28 28 29 29 29 28 28 29 28 28 28 27 27 27 27 27 27 28 28 29 29 30 31 31 30 29 29 29 29 29 29 30 30 30 30 29 29 29
29 29 29 28 29 29 29 29 29 30 30 28 28 29 29 28 28 28 28 28 28 28 28 29 29 30 31 31 31 30 29 29 29 29 30 30 29 30 30 30 30 30 30 30
28 29 29 29 29 30 30 30 30 30 29 28 28 28 28 28 28 28 28 28 28 29 29 30 30 31 31 31 31 31 31 30 29 30 30 30 30 30 30 30 30 30 30 30
30 31 31 30 30 30 30 30 30 29 28 28 28 28 28 28 28 29 28 28 29 30 31 31 32 32 32 32 32 32 32 32 31 30 30 30 30 31 30 30 29 30 30 30
30 31 32 32 31 31 30 29 29 28 28 28 29 29 28 28 29 29 29 30 31 31 32 32 32 32 33 32 32 32 32 32 32 31 31 30 30 31 30 30 30 30 30 30
30 31 31 31 31 31 30 30 30 30 29 28 28 28 28 29 29 29 29 30 31 32 32 31 32 32 32 32 32 32 32 32 32 32 31 31 30 31 30 30 30 29 29 30
31 31 31 31 31 31 30 30 29 28 28 27 28 28 29 29 29 28 29 30 30 31 31 31 32 32 32 32 32 32 32 32 32 32 31 31 31 30 30 29 29 28 29 29
29 29 29 30 30 30 30 30 30 29 29 29 28 28 29 30 29 29 29 30 30 31 31 31 32 32 32 32 31 31 31 31 31 31 31 30 30 29 29 28 28 29 29 30
28 28 28 28 29 29 29 30 30 31 31 31 31 30 30 30 30 30 30 30 30 30 31 31 32 32 32 31 31 31 30 30 30 30 30 29 29 29 29 29 29 30 30 30
27 27 27 28 28 29 29 29 30 30 30 30 31 31 31 31 31 31 31 31 32 32 32 31 32 31 31 31 31 30 30 30 30 30 29 29 29 30 30 30 31 31 31 31
26 27 28 28 28 28 29 29 29 30 30 31 31 31 31 31 32 31 31 32 32 32 31 31 30 30 30 30 30 30 30 30 30 30 30 30 30 30 31 31 31 31 31 31
24 25 26 27 27 28 29 30 30 30 30 30 31 31 31 31 31 31 31 31 31 31 31 30 29 30 30 30 31 31 31 31 31 31 30 31 31 31 31 31 31 31 31 31
24 24 25 25 26 27 28 28 28 29 30 30 30 30 30 31 31 30 30 30 30 30 30 29 29 29 30 30 31 31 31 31 31 31 31 31 31 31 31 31 30 30 30 30
23 24 24 24 25 26 26 26 26 27 28 28 29 29 29 30 30 30 30 30 29 29 29 29 29 29 29 30 31 31 30 30 30 31 31 30 30 30 30 30 29 29 29 29
22 22 23 24 24 25 25 25 26 25 26 26 27 28 28 28 28 28 28 28 28 28 29 29 29 29 30 30 30 30 29 30 30 30 29 29 29 29 29 29 29 28 28 28
21 21 22 22 23 23 24 24 24 25 25 25 25 26 26 25 25 25 25 25 26 26 27 27 28 28 28 28 28 27 27 27 28 28 28 27 27 27 28 28 28 28 28 28
21 20 21 21 22 22 22 23 23 23 23 24 23 23 23 23 23 23 23 24 24 25 25 25 25 25 26 26 26 26 26 26 26 26 26 26 27 27 28 27 27 27 27 27
Wind_Direction
242 244 248 251 254 260 265 266 270 274 277 280 280 283 288 291 291 291 295 297 295 297 301 302 302 303 302 303 304 304 303 303 302 301 300 299 298 298 298 298 298 296 296 297
242 244 249 251 255 262 265 265 269 273 279 284 285 281 285 289 291 290 293 295 294 294 300 303 302 300 301 303 302 302 302 301 300 299 298 298 297 298 298 298 298 296 298 299
252 250 251 251 254 257 260 265 269 274 279 283 285 284 286 288 289 290 291 292 294 296 298 299 298 298 300 301 301 301 301 301 299 298 298 297 296 297 298 297 296 295 296 297
256 254 251 256 258 260 264 267 269 272 276 279 283 283 283 284 287 289 291 293 295 294 294 295 296 295 297 298 298 300 301 301 299 298 296 296 297 298 299 297 295 295 295 295
258 258 257 257 260 262 265 269 270 272 275 279 282 283 284 286 289 291 292 294 295 295 295 294 294 294 294 295 297 298 298 298 298 298 298 298 298 297 299 296 294 294 295 297
259 260 260 262 263 264 265 267 268 270 272 277 279 280 281 283 284 287 289 291 293 293 294 293 294 295 296 296 297 298 298 297 297 298 299 299 298 298 297 297 296 295 294 297
260 262 263 264 264 264 264 269 271 271 272 276 279 280 280 281 283 285 287 288 290 291 291 292 292 295 296 296 297 298 297 296 296 297 297 296 297 297 298 298 296 295 295 296
262 264 265 266 267 265 266 269 271 273 274 275 278 279 281 283 285 286 286 288 289 290 290 291 293 295 296 295 296 298 298 298 296 296 296 295 296 298 299 299 298 297 296 296
262 264 266 267 267 268 268 269 272 274 275 276 277 280 283 285 286 287 288 288 289 290 290 291 292 293 295 296 298 298 299 298 296 295 294 295 296 297 299 299 298 298 298 298
264 265 267 267 268 269 271 272 273 273 274 275 279 282 284 286 286 287 289 290 290 290 291 291 292 293 294 295 297 298 298 297 295 295 294 295 296 296 297 299 299 298 297 298
263 265 268 270 270 269 270 273 275 276 276 276 278 280 283 285 286 287 290 292 292 292 293 293 292 292 293 294 295 296 296 296 295 294 294 294 295 297 298 298 298 297 296 297
262 265 267 269 270 271 272 273 275 276 276 277 277 279 281 284 287 289 290 291 291 291 291 291 292 293 294 295 295 294 294 294 294 294 294 294 294 296 297 296 296 298 298 297
262 264 268 271 272 272 273 275 276 275 276 278 278 279 281 284 286 289 291 290 291 290 290 291 291 292 294 294 293 293 294 294 294 294 294 294 294 295 295 296 296 297 298 298
261 264 267 269 270 271 272 275 275 274 275 276 277 279 281 284 285 288 289 289 290 291 292 292 292 293 293 293 293 293 294 294 294 294 293 293 293 294 294 294 295 296 298 298
261 263 266 268 270 271 272 273 273 274 275 277 279 280 281 283 285 286 286 287 289 291 292 292 293 293 293 292 292 292 293 293 294 293 293 292 292 293 293 293 295 296 297 297
262 263 265 268 269 271 272 273 273 273 274 275 277 280 281 282 283 284 284 286 287 289 290 292 293 294 293 292 291 292 293 293 293 292 292 292 292 293 293 294 296 297 298 298
263 264 265 266 268 269 270 271 271 271 273 274 275 277 279 281 282 284 284 286 287 289 290 292 293 293 293 292 292 292 293 293 293 293 292 292 293 294 295 295 296 297 298 299
264 267 267 267 267 268 269 270 271 273 273 275 276 276 278 280 281 283 285 286 287 289 291 292 293 292 292 292 292 292 292 292 293 293 293 293 293 294 294 294 295 296 296 298
267 268 268 268 268 268 269 270 272 274 274 274 275 276 278 280 282 283 285 287 288 289 291 291 291 291 291 291 292 292 292 292 293 293 294 294 294 293 292 292 294 296 298 298
268 269 270 270 270 270 269 270 272 274 274 275 276 277 279 280 282 283 285 286 288 289 290 292 292 291 291 292 293 294 293 293 293 292 293 294 293 293 292 293 295 296 298 299
270 270 270 271 272 271 270 272 273 274 274 275 276 278 279 280 282 283 285 286 288 289 290 291 292 293 292 292 293 293 294 293 292 292 293 293 292 292 292 293 294 295 297 298
271 272 272 272 273 273 273 275 274 274 274 275 276 278 279 280 282 284 285 286 287 289 290 291 292 293 293 292 292 293 293 293 292 292 293 292 292 292 292 292 292 293 294 296
274 274 275 274 273 274 275 277 276 275 276 276 277 278 279 281 282 284 285 286 287 288 288 289 292 294 295 295 294 294 293 293 293 293 292 292 293 292 292 291 291 292 293 294
276 276 277 278 278 277 277 279 280 279 278 279 279 280 280 281 282 283 284 285 286 287 287 289 292 294 296 297 297 295 294 294 293 292 293 293 293 294 294 295 294 292 293 294
280 281 281 282 282 281 282 283 283 282 281 281 282 281 281 281 282 283 284 285 285 286 287 289 292 293 294 296 297 296 294 292 291 291 294 295 295 295 296 295 294 293 294 294
281 283 285 285 284 283 284 285 285 284 282 282 283 283 282 282 282 283 284 286 287 288 290 292 294 295 296 297 297 297 296 295 294 293 294 295 295 297 298 296 295 295 295 296
282 286 286 286 288 287 287 286 286 286 285 284 285 285 284 284 284 285 287 289 291 292 294 296 297 299 299 299 299 298 297 297 296 295 294 295 296 297 298 299 299 298 298 298
Height
5895 5895 5895 5895 5895 5895 5895 5894 5894 5895 5894 5893 5892 5891 5890 5889 5888 5887 5886 5884 5882 5880 5878 5876 5874 5873 5871 5869 5867 5864 5862 5859 5857 5854 5851 5848 5845 5843 5840 5837 5834 5831 5829 5827
5889 5890 5890 5890 5891 5891 5890 5889 5889 5889 5888 5888 5887 5886 5886 5885 5884 5882 5881 5879 5877 5875 5873 5871 5869 5867 5865 5863 5861 5858 5855 5853 5850 5847 5844 5841 5839 5836 5833 5830 5827 5825 5822 5820
5883 5884 5884 5885 5886 5885 5885 5884 5884 5883 5884 5883 5882 5880 5880 5879 5878 5876 5875 5874 5872 5870 5867 5865 5863 5861 5859 5857 5855 5852 5849 5845 5842 5840 5837 5834 5831 5829 5826 5823 5820 5817 5815 5813
5876 5878 5878 5882 5880 5879 5879 5878 5878 5878 5877 5876 5875 5874 5874 5873 5871 5870 5868 5867 5865 5863 5861 5859 5857 5855 5852 5850 5847 5845 5842 5838 5835 5832 5830 5827 5824 5821 5819 5816 5813 5810 5808 5805
5870 5870 5872 5874 5874 5873 5873 5871 5871 5871 5870 5869 5868 5868 5867 5866 5865 5863 5862 5860 5858 5856 5854 5851 5849 5847 5845 5843 5840 5837 5834 5831 5828 5825 5822 5820 5817 5814 5811 5808 5806 5803 5800 5798
5863 5863 5865 5868 5868 5866 5866 5865 5865 5864 5863 5862 5862 5861 5861 5859 5857 5856 5855 5853 5851 5849 5846 5844 5842 5840 5838 5835 5833 5830 5827 5824 5821 5818 5815 5812 5810 5807 5804 5801 5798 5795 5792 5790
5856 5856 5857 5860 5860 5860 5860 5859 5858 5857 5856 5856 5855 5854 5853 5851 5850 5848 5847 5845 5843 5841 5838 5836 5835 5833 5830 5828 5825 5822 5819 5816 5813 5810 5807 5805 5802 5800 5797 5794 5791 5788 5785 5782
5849 5850 5852 5852 5852 5853 5852 5851 5850 5850 5849 5848 5848 5846 5845 5844 5842 5840 5838 5837 5835 5833 5830 5827 5825 5824 5822 5820 5817 5814 5811 5808 5805 5803 5800 5797 5795 5792 5789 5786 5783 5780 5777 5774
5843 5844 5844 5843 5844 5844 5843 5843 5843 5842 5841 5841 5840 5839 5837 5836 5834 5832 5830 5828 5826 5824 5822 5821 5819 5817 5815 5812 5809 5806 5803 5800 5798 5795 5792 5790 5787 5784 5781 5778 5775 5772 5769 5766
5835 5835 5835 5836 5836 5836 5836 5836 5835 5834 5834 5833 5832 5830 5829 5828 5826 5824 5822 5820 5818 5816 5815 5813 5811 5809 5807 5805 5802 5798 5796 5793 5790 5787 5785 5782 5779 5776 5773 5770 5767 5764 5761 5758
5827 5827 5827 5828 5828 5828 5828 5828 5827 5826 5826 5825 5824 5822 5820 5819 5818 5816 5815 5813 5811 5809 5807 5806 5804 5802 5799 5796 5793 5791 5788 5785 5782 5779 5777 5774 5771 5768 5765 5762 5759 5756 5753 5749
5819 5820 5820 5820 5820 5820 5820 5820 5819 5819 5818 5817 5816 5815 5813 5811 5809 5808 5807 5805 5803 5801 5800 5798 5796 5793 5791 5788 5785 5782 5779 5777 5774 5771 5769 5766 5763 5760 5757 5754 5751 5747 5744 5741
5811 5811 5811 5811 5811 5811 5811 5811 5811 5810 5810 5809 5808 5807 5805 5803 5802 5801 5799 5797 5795 5793 5792 5790 5787 5785 5782 5779 5776 5773 5771 5768 5765 5763 5760 5757 5755 5752 5749 5746 5742 5739 5736 5732
5802 5802 5802 5803 5803 5803 5802 5802 5802 5802 5802 5801 5800 5799 5797 5796 5794 5793 5791 5789 5787 5785 5783 5781 5778 5776 5773 5770 5767 5765 5762 5759 5757 5754 5751 5748 5746 5743 5740 5737 5734 5731 5727 5724
5793 5793 5793 5793 5794 5794 5794 5793 5793 5793 5793 5793 5791 5790 5788 5787 5786 5785 5783 5781 5779 5776 5774 5772 5769 5766 5763 5761 5758 5755 5753 5750 5747 5745 5742 5739 5736 5734 5731 5728 5725 5722 5719 5715
5784 5784 5784 5785 5785 5785 5785 5785 5785 5785 5784 5784 5783 5781 5780 5778 5777 5776 5774 5772 5770 5767 5765 5762 5760 5757 5754 5751 5749 5746 5743 5740 5737 5735 5733 5730 5727 5724 5722 5719 5716 5714 5711 5707
5774 5775 5775 5776 5776 5776 5776 5776 5776 5775 5775 5775 5773 5772 5771 5769 5768 5767 5765 5762 5761 5758 5756 5753 5751 5748 5745 5742 5740 5737 5734 5731 5728 5726 5723 5721 5718 5716 5713 5710 5708 5705 5702 5699
5764 5765 5766 5767 5767 5767 5767 5767 5766 5766 5766 5765 5764 5763 5761 5760 5759 5758 5756 5754 5752 5749 5747 5744 5741 5738 5735 5733 5730 5727 5725 5722 5719 5717 5714 5712 5709 5707 5704 5702 5699 5697 5694 5691
5755 5756 5756 5757 5757 5758 5757 5757 5757 5757 5756 5755 5754 5753 5752 5751 5749 5748 5747 5744 5742 5740 5738 5734 5731 5728 5726 5723 5721 5718 5716 5713 5710 5708 5705 5703 5700 5698 5696 5693 5691 5688 5685 5682
5747 5747 5748 5748 5748 5748 5748 5748 5747 5747 5746 5745 5744 5743 5742 5741 5740 5738 5737 5735 5732 5730 5727 5725 5722 5719 5716 5714 5711 5709 5706 5704 5701 5699 5696 5694 5692 5689 5686 5684 5682 5679 5676 5673
5739 5739 5739 5739 5739 5739 5739 5739 5738 5737 5737 5736 5735 5734 5733 5731 5730 5728 5727 5725 5723 5720 5718 5715 5712 5710 5707 5705 5702 5700 5697 5695 5692 5690 5687 5685 5682 5680 5677 5675 5672 5669 5667 5664
5732 5731 5731 5731 5731 5730 5730 5729 5729 5728 5727 5726 5725 5724 5723 5721 5720 5719 5717 5715 5713 5710 5708 5706 5703 5701 5698 5696 5693 5691 5688 5685 5683 5680 5678 5675 5673 5670 5668 5665 5662 5660 5657 5654
5724 5724 5723 5723 5723 5722 5721 5720 5719 5718 5718 5717 5716 5714 5713 5711 5710 5709 5707 5705 5703 5701 5699 5696 5694 5691 5689 5686 5684 5681 5679 5676 5673 5670 5668 5666 5663 5660 5658 5655 5652 5650 5647 5645
5717 5716 5715 5715 5714 5714 5713 5712 5711 5710 5709 5708 5706 5705 5703 5701 5700 5699 5697 5696 5694 5691 5689 5687 5685 5682 5680 5677 5674 5672 5669 5666 5664 5661 5658 5656 5653 5651 5648 5645 5643 5640 5638 5635
5710 5709 5708 5708 5707 5706 5705 5704 5702 5701 5700 5699 5698 5696 5694 5692 5691 5689 5688 5686 5685 5682 5680 5678 5676 5674 5671 5668 5665 5662 5660 5657 5654 5652 5649 5646 5644 5641 5639 5637 5634 5631 5628 5625
5703 5702 5701 5700 5699 5698 5697 5695 5694 5693 5692 5690 5689 5687 5686 5684 5682 5681 5679 5678 5676 5674 5672 5670 5667 5665 5662 5660 5657 5654 5651 5648 5646 5643 5640 5638 5635 5633 5630 5628 5625 5622 5620 5617
5696 5694 5693 5692 5691 5690 5689 5687 5686 5685 5684 5682 5681 5679 5678 5676 5675 5673 5671 5669 5668 5665 5663 5661 5659 5657 5654 5651 5649 5646 5643 5640 5637 5635 5632 5630 5627 5625 5622 5619 5616 5614 5611 5609